Columbia, MO

1:55 PM CDT on June 28, 2017 (GMT -0500)
Columbia Regional

Weather History for KCOU - November, 2011

Change the Weather History Date:

Saturday, November 19, 2011

  Actual Average Record
Temperature  
Mean Temperature 55 °F 43 °F  
Max Temperature 68 °F 52 °F 80 °F (1942)
Min Temperature 42 °F 34 °F 9 °F (1914)
Degree Days  
Heating Degree Days 10 22  
Month to date heating degree days 269 342  
Since 1 July heating degree days 622 707  
Cooling Degree Days 0 0  
Month to date cooling degree days 0 0  
Year to date cooling degree days 1508 1247  
Growing Degree Days 5 (Base 50)    
Moisture  
Dew Point 43 °F    
Average Humidity 60    
Maximum Humidity 78    
Minimum Humidity 42    
Precipitation  
Precipitation 0.00 in 0.11 in 1.17 in (1939)
Month to date precipitation 3.48 2.06  
Year to date precipitation 35.15 38.99  
Snow  
Snow 0.00 in 0.10 in 4.60 in (1972)
Month to date snowfall T 0.4  
Since 1 July snowfall T 0.4  
Since 1 September snowfall T 0.4  
Snow Depth 0.00 in    
Sea Level Pressure  
Sea Level Pressure 29.82 in    
Wind  
Wind Speed 17 mph (SSW)    
Max Wind Speed 33 mph    
Max Gust Speed 41 mph    
Visibility 10 miles    
Events      
T = Trace of Precipitation, MM = Missing Value Source: NWS Daily Summary

Daily Weather History Graph

Daily Weather History Graph

Search for Another Location

Airport or City:

Trip Planner

Search our weather history database for the weather conditions in past years. The results will help you decide how hot, cold, wet, or windy it might be!

Date:

Astronomy

Nov. 19, 2011 Rise Set
Actual Time 6:55 AM CST 4:52 PM CST
Civil Twilight 6:26 AM CST 5:21 PM CST
Nautical Twilight 5:54 AM CST 5:53 PM CST
Astronomical Twilight 5:22 AM CST 6:25 PM CST
Moon 12:20 AM CST (11/19) 1:07 PM CST (11/19)
Length of Visible Light 10h 54m
Length of Day
9h 57m
Last Quarter, 38% of the Moon is Illuminated
Nov 19
Last Quarter
Nov 25
New
Dec 2
First Quarter
Dec 10
Full
Dec 17
Last Quarter

Hourly Weather History & Observations

Time (CST) Temp. Windchill Dew Point Humidity Pressure Visibility Wind Dir Wind Speed Gust Speed Precip Events Conditions
12:54 AM 48.0 °F - 28.0 °F 46% 29.88 in 10.0 mi South 16.1 mph - N/A   Overcast
1:54 AM 48.0 °F - 28.9 °F 48% 29.86 in 10.0 mi South 18.4 mph - N/A   Overcast
2:54 AM 48.0 °F - 28.9 °F 48% 29.85 in 10.0 mi SSE 15.0 mph - N/A   Overcast
3:54 AM 48.0 °F - 30.0 °F 50% 29.83 in 10.0 mi SSE 16.1 mph 25.3 mph N/A   Overcast
4:54 AM 48.0 °F - 30.9 °F 52% 29.82 in 10.0 mi SSE 12.7 mph - N/A   Mostly Cloudy
5:54 AM 50.0 °F - 32.0 °F 50% 29.80 in 10.0 mi SSE 15.0 mph - N/A   Overcast
6:54 AM 51.1 °F - 35.1 °F 54% 29.78 in 10.0 mi SSE 16.1 mph 23.0 mph N/A   Overcast
7:54 AM 53.1 °F - 39.0 °F 59% 29.77 in 10.0 mi South 19.6 mph - N/A   Mostly Cloudy
8:54 AM 55.9 °F - 42.1 °F 60% 29.77 in 10.0 mi South 20.7 mph 29.9 mph N/A   Overcast
9:54 AM 57.9 °F - 45.0 °F 62% 29.75 in 10.0 mi South 21.9 mph 31.1 mph N/A   Mostly Cloudy
10:54 AM 62.1 °F - 48.0 °F 60% 29.74 in 10.0 mi South 19.6 mph 33.4 mph N/A   Overcast
11:54 AM 66.0 °F - 51.1 °F 59% 29.70 in 10.0 mi SSW 19.6 mph 27.6 mph N/A   Mostly Cloudy
12:54 PM 66.2 °F - 51.8 °F 60% 29.71 in 10.0 mi SSW 31.1 mph 40.3 mph N/A   Overcast
1:54 PM 66.0 °F - 52.0 °F 60% 29.69 in 10.0 mi SSW 28.8 mph 38.0 mph N/A   Overcast
2:54 PM 66.0 °F - 53.1 °F 63% 29.71 in 10.0 mi SSW 20.7 mph 29.9 mph N/A   Mostly Cloudy
3:54 PM 64.9 °F - 53.1 °F 65% 29.73 in 10.0 mi SSW 19.6 mph - N/A   Scattered Clouds
4:54 PM 62.1 °F - 53.1 °F 72% 29.75 in 10.0 mi South 11.5 mph - N/A   Clear
5:54 PM 60.8 °F - 53.6 °F 77% 29.79 in 10.0 mi South 10.4 mph - N/A   Clear
6:54 PM 62.1 °F - 54.0 °F 75% 29.82 in 10.0 mi South 9.2 mph - N/A   Overcast
7:54 PM 62.1 °F - 54.0 °F 75% 29.88 in 10.0 mi WSW 11.5 mph - N/A   Overcast
8:54 PM 55.0 °F - 44.1 °F 67% 29.95 in 10.0 mi WNW 9.2 mph - N/A   Overcast
9:54 PM 46.9 °F - 39.9 °F 77% 30.00 in 10.0 mi NW 17.3 mph - N/A   Overcast
10:54 PM 44.1 °F 37.4 °F 37.9 °F 79% 30.04 in 10.0 mi NW 13.8 mph - N/A   Overcast
11:54 PM 42.8 °F 37.0 °F 37.4 °F 81% 30.06 in 10.0 mi NW 10.4 mph - N/A   Scattered Clouds